Location: Bishop�s Knoyle
(51.0728°N, 2.1714°W)
Time: 13:28:10
(UTC+00:00)

Envisat - Pass Details

Date: 23 September 2021
Orbit: 764 x 766 km, 98.2° (Epoch: 23 October)

Event Time Altitude Azimuth Distance (km) Brightness Sun altitude
Rises 05:09:27 0° 17° (NNE) 3,246 6.6 -8.2°
Reaches altitude 10° 05:11:49 10° 21° (NNE) 2,314 5.9 -7.8°
Maximum altitude 05:16:51 58° 101° (E) 894 3.8 -7.1°
Drops below altitude 10° 05:21:50 10° 180° (S) 2,296 5.4 -6.3°
Sets 05:24:10 0° 184° (S) 3,218 6.1 -5.9°
